Theta_e
311 318 319 322 319 317 318 318 319 318 331 336 345 345 353 352 361 364 354 353 353 348 346 347 347 345 342 338 335 332 330 330 338 341 340 339 337 332 333 335 338 338 338 331 327 325 330 337 340
315 319 321 314 317 316 314 314 318 319 319 338 338 341 349 355 347 349 355 356 354 351 345 346 347 346 343 339 335 331 328 328 335 340 341 340 336 333 333 335 337 337 333 326 324 324 329 336 339
318 320 316 315 314 316 317 317 314 315 316 318 334 337 340 346 346 346 354 361 359 353 348 346 346 347 344 340 335 331 327 327 332 336 340 340 336 333 334 335 336 337 333 328 324 324 324 327 333
317 312 310 316 321 320 319 314 312 313 316 317 331 335 337 338 344 350 359 361 356 355 353 347 346 347 345 341 336 332 329 328 331 331 333 336 335 333 334 335 337 335 333 332 332 330 327 325 326
314 308 312 316 318 317 315 312 312 313 315 322 327 338 342 346 358 358 360 361 355 355 354 349 346 347 346 343 339 334 332 329 330 329 326 330 333 333 334 335 337 337 336 336 335 333 329 327 327
308 307 312 314 314 314 313 311 312 312 312 315 331 334 335 338 357 358 360 360 357 354 354 350 346 346 346 345 342 337 334 331 330 329 327 326 329 331 334 335 337 338 337 335 334 335 332 327 325
308 306 311 313 311 313 314 311 312 312 312 314 317 326 324 324 353 357 356 361 359 355 353 352 347 345 343 344 344 341 336 334 331 330 329 327 326 328 331 334 335 335 335 334 334 336 330 324 324
304 305 309 309 312 314 314 314 313 314 315 313 314 316 318 317 324 360 360 360 360 359 357 353 350 348 344 342 344 344 340 336 333 331 330 330 330 329 331 333 335 335 335 334 337 334 325 323 324
305 305 306 312 315 314 313 315 315 314 315 315 315 316 316 317 318 359 361 361 360 360 358 355 353 350 347 343 341 344 344 339 336 333 333 332 333 333 332 333 334 335 335 337 339 331 324 325 325
307 308 312 311 315 314 313 314 314 315 314 315 314 315 316 316 316 317 345 358 360 360 358 357 355 353 349 345 344 343 346 345 341 339 337 334 334 335 334 335 336 337 339 340 336 330 327 326 324
313 312 313 315 315 313 313 313 314 315 314 314 314 314 314 316 315 315 316 332 357 358 360 358 357 356 352 349 347 346 347 350 347 344 341 339 336 336 338 337 340 341 341 338 334 331 328 324 324
316 314 313 313 313 312 313 313 314 314 314 313 313 313 313 313 313 314 315 315 321 344 353 359 358 357 356 352 351 350 350 350 351 349 344 348 339 335 337 338 339 341 340 337 335 332 328 324 323
314 314 312 312 312 313 313 313 314 313 312 312 312 313 312 312 311 315 316 317 316 316 320 343 358 358 357 355 353 350 350 350 351 355 350 346 339 334 334 337 338 339 338 336 335 333 329 326 324
314 313 313 313 313 313 313 312 314 313 309 311 311 311 310 311 311 313 315 315 317 317 321 327 353 357 358 356 354 352 350 350 353 351 348 343 337 336 334 338 337 338 336 336 337 334 331 328 330
314 315 313 314 315 313 312 312 313 311 310 311 311 310 310 310 312 312 314 315 316 316 317 322 342 356 356 355 355 353 351 348 349 347 344 341 337 338 335 336 337 336 335 336 339 338 333 332 336
315 313 315 314 310 312 312 311 312 311 310 311 311 310 310 309 309 312 313 315 316 316 317 317 325 349 354 353 353 353 351 350 349 347 346 343 340 338 338 337 338 338 340 341 342 342 337 334 338
310 315 314 311 310 311 312 311 311 310 310 310 310 309 309 309 309 312 313 314 315 315 316 317 319 335 350 351 351 352 351 351 350 349 347 345 344 340 339 338 340 342 343 343 344 344 340 337 339
313 311 310 310 311 310 311 310 311 311 310 310 310 310 311 312 314 315 317 319 318 316 315 316 317 334 340 350 351 351 350 350 350 350 349 347 346 345 343 340 340 344 343 343 344 344 339 340 340
313 311 311 311 311 313 310 311 310 310 310 310 309 315 315 314 316 316 317 317 317 318 315 315 316 317 343 350 350 348 348 347 349 349 348 349 348 348 346 344 342 345 346 343 344 346 341 341 339
314 314 313 312 313 313 311 312 311 312 312 310 317 316 315 315 316 317 318 318 320 319 317 316 316 317 320 343 345 346 344 345 348 348 347 347 347 347 348 347 344 344 346 346 345 346 342 341 336
315 314 313 313 313 311 311 313 313 311 313 317 316 316 315 316 315 317 318 318 319 321 321 317 316 316 319 330 342 346 347 346 345 347 347 348 347 346 346 347 346 343 344 345 345 345 341 337 338
315 314 313 313 312 311 312 314 313 312 315 317 316 315 315 315 315 316 318 318 318 320 321 323 317 316 319 323 338 342 343 344 342 338 340 341 344 347 347 346 346 345 343 344 344 343 336 335 339
314 313 312 312 311 312 312 310 311 315 319 317 317 319 317 316 315 316 316 317 317 318 318 320 323 322 322 323 338 339 339 337 331 332 334 332 337 344 347 347 345 345 344 344 344 342 337 337 337
313 311 310 309 309 311 313 314 314 314 319 318 319 318 318 317 316 315 314 313 314 314 314 316 319 322 325 326 326 338 338 337 337 337 337 331 334 337 345 347 345 345 344 344 343 342 339 338 336
311 309 309 312 310 313 312 315 314 312 317 318 319 319 316 316 314 312 312 312 312 312 312 313 315 319 322 328 329 330 337 333 332 330 330 334 340 344 345 345 345 344 343 341 340 341 339 338 338
313 311 310 314 314 315 314 317 316 314 316 316 317 317 313 312 311 311 310 311 311 311 311 311 313 316 322 323 329 332 335 337 332 328 327 336 337 342 345 344 344 344 344 343 342 341 341 341 341
313 310 311 309 313 318 315 315 313 316 317 316 315 313 310 310 309 308 308 309 309 309 309 311 312 314 317 322 325 330 331 337 339 335 338 334 338 339 342 343 343 343 342 334 333 341 341 339 339
313 312 313 310 317 322 316 315 315 313 314 313 314 311 309 308 307 307 307 307 307 307 308 309 310 313 315 322 323 335 331 330 333 332 333 335 337 338 340 343 343 342 336 336 339 339 336 333 329
313 312 316 317 322 321 319 315 309 312 312 311 312 310 309 307 306 306 306 307 307 307 307 308 310 313 314 322 325 326 337 336 331 337 334 332 335 336 339 343 342 341 341 338 338 332 328 332 326
312 313 313 309 315 313 319 318 312 310 313 313 312 310 308 306 305 306 307 307 306 306 306 307 310 311 313 319 324 324 330 331 334 335 333 332 335 337 338 342 340 340 338 335 332 326 326 326 328
Wind_Speed
12 10 4 4 4 4 3 5 4 9 7 4 3 7 8 3 1 2 5 10 7 26 24 22 21 20 20 20 19 18 19 22 24 26 26 26 26 26 27 24 21 18 14 13 14 14 15 15 14
11 5 4 2 4 3 5 6 8 5 4 6 7 4 7 3 3 1 2 6 14 26 26 23 21 20 20 20 19 18 19 20 22 23 24 24 26 27 27 25 20 17 15 13 13 13 13 12 11
7 4 3 4 3 3 2 8 16 10 6 5 3 4 4 2 2 2 2 10 17 27 26 24 23 21 19 18 19 19 19 20 20 22 23 24 26 27 27 24 20 17 15 13 12 11 11 11 9
4 6 4 4 2 2 3 9 10 8 6 6 1 5 4 7 2 4 10 12 19 25 24 23 22 21 20 19 18 18 18 19 20 22 23 24 26 26 25 22 20 17 15 13 11 9 9 9 7
5 3 4 3 2 2 1 6 8 9 4 7 2 4 3 6 9 8 11 13 20 23 21 21 19 19 19 19 19 17 17 18 20 21 22 24 26 26 25 22 19 17 15 11 9 8 7 7 6
4 3 4 1 3 5 4 5 7 8 8 8 8 4 2 3 7 11 12 14 15 19 21 21 19 17 18 18 18 18 17 17 19 21 22 23 25 25 23 21 19 17 14 11 9 7 6 6 5
6 4 3 1 4 3 4 4 6 5 8 9 4 3 2 5 2 12 14 17 17 17 18 20 20 19 18 18 18 19 19 18 19 21 22 23 24 24 23 21 19 16 13 11 9 8 7 6 4
5 4 3 2 1 3 3 5 3 3 2 7 4 4 3 3 7 5 10 15 16 17 18 19 21 21 19 18 18 18 18 18 18 20 22 22 22 22 22 20 19 17 14 11 9 8 7 6 4
4 5 1 3 4 6 4 5 2 3 3 2 2 0 2 4 5 8 7 9 12 16 18 19 21 22 21 20 19 19 19 19 18 19 21 21 22 22 21 21 19 17 15 13 11 10 9 7 6
5 4 6 4 2 3 5 3 6 3 3 4 3 3 4 5 2 6 9 12 13 16 18 20 21 23 23 22 21 21 21 21 21 21 22 23 23 24 23 21 19 17 15 13 12 11 10 9 8
1 3 4 2 1 2 4 4 3 2 9 8 7 8 7 4 6 4 8 14 20 21 19 22 22 22 23 24 24 24 24 23 23 23 23 24 24 25 24 23 21 19 17 15 14 13 12 11 9
2 2 3 5 6 6 6 5 4 4 8 9 8 6 6 10 8 10 13 10 14 20 25 25 24 23 23 24 23 24 25 26 25 24 24 25 26 26 27 25 24 22 20 18 16 15 13 13 11
3 4 8 9 8 6 3 6 3 4 9 10 10 8 8 9 11 21 19 20 14 15 19 25 27 26 25 26 26 25 27 24 25 25 27 28 30 29 28 28 27 25 22 21 19 18 16 14 12
3 5 8 7 7 4 3 5 3 5 9 10 10 11 9 7 9 14 23 24 26 24 17 20 29 31 30 28 28 27 30 30 27 28 31 31 30 30 30 30 29 27 25 23 21 19 17 15 11
3 7 9 4 3 4 1 8 7 5 6 9 10 9 10 10 16 14 22 24 25 28 26 21 27 33 34 33 31 30 30 33 32 34 33 32 32 32 31 31 30 28 26 25 23 22 19 16 13
6 4 5 7 7 3 6 8 5 6 7 9 10 9 10 11 11 23 26 26 28 29 29 27 29 34 36 35 35 33 33 33 33 34 34 34 34 34 32 32 30 28 27 26 25 23 20 19 16
6 4 5 9 4 4 2 8 7 6 6 10 8 8 9 10 11 25 27 26 30 33 31 30 30 33 37 37 38 37 36 36 35 32 32 34 35 36 36 35 32 29 27 28 25 23 22 20 17
7 4 5 7 6 6 7 11 3 8 7 9 10 8 7 9 14 21 29 30 27 27 29 31 30 35 37 40 39 38 35 32 33 31 31 32 33 35 37 37 36 33 30 29 25 23 23 21 19
5 4 7 5 9 3 7 11 4 9 7 10 8 10 11 10 11 24 25 25 25 24 25 25 34 33 36 32 32 29 32 34 35 34 34 33 31 32 35 38 37 35 34 32 30 26 24 22 15
4 3 5 5 5 5 10 19 7 6 6 7 3 8 9 11 14 16 26 20 20 22 22 26 29 37 36 37 36 29 37 36 41 37 35 35 35 33 33 38 34 39 35 35 34 29 25 25 22
3 1 5 7 4 6 6 17 6 5 2 4 4 6 7 8 12 13 18 22 23 26 31 22 23 31 40 41 36 28 23 24 29 32 36 32 31 36 36 36 36 37 39 34 40 31 29 24 25
4 2 5 10 6 5 3 14 3 1 4 3 6 7 8 8 10 9 11 18 21 24 31 31 19 26 35 42 37 34 30 23 33 36 36 37 38 37 35 39 37 38 41 33 39 32 34 30 18
5 5 5 9 5 3 5 3 6 3 2 5 7 4 6 8 9 11 10 17 23 28 29 33 33 18 24 32 36 39 31 36 38 36 31 30 32 35 42 39 40 40 38 39 39 36 39 31 24
5 5 6 4 3 1 3 4 5 4 4 5 4 5 5 8 9 9 16 21 25 28 36 35 34 29 26 22 31 30 34 36 32 28 27 29 30 31 34 40 37 36 35 37 39 38 39 33 27
10 6 4 6 4 5 3 4 9 6 7 6 4 4 4 1 7 10 13 16 26 31 30 33 34 34 28 18 25 36 35 40 38 36 31 28 26 20 29 34 36 35 28 27 27 27 34 32 29
2 5 4 5 3 6 5 6 6 8 5 6 5 1 3 5 7 10 11 16 22 28 33 34 35 35 31 27 17 27 30 30 38 35 32 26 24 25 27 29 33 31 26 14 10 11 24 30 27
2 1 3 1 2 4 4 6 8 6 9 7 7 4 5 5 7 8 10 16 24 28 31 31 36 39 37 28 26 18 23 23 24 31 19 19 19 22 23 26 30 32 29 25 16 27 19 23 19
3 4 0 2 3 5 4 5 7 6 9 9 7 7 6 6 9 9 10 19 27 30 31 31 35 33 34 27 21 16 19 19 19 18 14 15 17 20 21 24 32 34 34 37 34 34 22 19 19
2 2 1 3 3 3 4 6 5 11 13 7 8 7 6 9 8 9 11 28 32 33 29 30 29 27 31 23 13 10 13 17 12 14 10 13 16 18 17 25 26 31 30 27 31 31 31 31 29
6 7 6 4 5 5 5 14 12 9 4 6 10 6 7 8 8 10 17 26 27 31 31 27 30 24 27 19 16 5 7 5 9 12 9 7 12 17 17 23 25 30 27 29 35 37 36 39 34
Wind_Direction
345 353 349 38 61 60 282 273 323 344 354 297 82 127 136 52 6 198 326 205 172 165 167 168 165 161 157 152 148 147 150 152 154 154 155 157 158 158 158 156 154 152 152 149 144 139 136 135 125
350 353 41 75 81 62 284 310 328 275 310 286 69 54 61 64 63 123 339 183 210 175 170 171 169 167 163 157 154 151 155 157 159 162 163 164 164 163 162 158 156 156 155 150 147 141 138 139 132
3 23 76 84 104 139 313 329 308 284 275 284 77 69 97 112 96 130 204 165 174 175 175 173 173 172 168 163 160 157 158 162 165 167 168 169 168 167 165 162 161 159 158 156 154 151 147 147 147
355 16 34 80 116 225 13 314 322 307 31 35 84 58 39 333 30 142 159 165 172 177 180 178 176 175 173 170 168 164 162 165 169 170 170 173 172 170 168 166 165 162 162 161 160 160 160 157 152
43 55 61 73 295 282 279 312 341 1 53 3 9 20 50 19 101 140 159 167 172 178 181 183 182 181 180 177 174 172 170 171 172 173 171 173 173 173 173 172 170 165 164 165 165 170 172 166 160
42 97 62 78 319 288 309 2 352 9 352 3 43 59 349 330 114 145 159 174 179 175 182 186 187 190 189 187 182 179 180 179 179 179 177 177 177 179 180 178 175 176 179 180 183 189 191 186 175
109 77 152 138 332 13 325 338 24 341 3 348 337 81 307 343 71 154 164 168 172 178 182 191 193 195 198 197 194 189 187 187 187 187 186 185 184 185 186 185 184 187 190 193 198 206 210 200 187
102 87 45 1 47 292 299 344 171 32 324 299 352 15 20 318 2 198 173 175 180 183 188 193 199 200 202 202 202 202 197 195 194 195 195 192 191 190 192 192 194 194 195 202 210 219 222 216 200
113 60 38 310 28 275 296 353 267 306 2 330 349 174 243 355 49 171 178 192 194 196 198 201 203 206 207 205 205 204 206 205 202 202 201 198 198 197 197 200 200 201 203 205 211 221 226 225 225
73 96 216 224 273 330 322 327 314 10 310 290 321 254 252 191 68 139 203 207 218 221 213 210 209 210 208 208 207 207 205 207 206 205 203 202 204 203 204 204 205 206 208 212 219 223 227 233 235
330 137 210 282 318 15 290 292 304 339 320 283 272 290 300 276 306 259 187 216 221 227 227 222 217 217 213 211 210 208 205 206 210 211 207 207 207 207 207 206 208 210 213 219 223 228 231 235 240
22 10 81 294 333 340 317 293 283 204 253 272 275 267 298 301 294 284 287 225 220 224 233 233 226 221 218 214 218 215 210 205 206 208 210 210 211 210 210 210 213 214 217 224 229 233 235 238 244
52 321 323 308 317 302 254 324 275 264 310 325 317 319 287 293 291 292 283 288 270 234 234 230 227 222 221 218 223 223 219 210 205 205 210 214 216 214 214 215 217 219 221 226 230 234 235 239 247
295 285 285 292 297 266 26 308 40 310 344 357 4 344 334 322 299 310 312 291 279 259 241 234 222 223 220 219 224 225 222 220 211 212 214 217 218 218 217 219 221 223 224 228 231 235 238 243 243
307 326 336 358 350 300 93 330 320 306 345 344 330 313 306 299 303 288 301 300 302 276 261 234 224 225 222 220 224 224 225 224 223 224 221 222 220 222 222 223 226 228 228 231 233 236 238 242 237
360 46 4 293 331 317 85 277 263 310 340 306 299 300 297 290 279 294 296 291 294 288 273 255 229 222 223 221 224 226 226 225 228 230 229 226 223 225 223 228 228 231 231 233 234 238 239 240 241
2 261 277 312 284 312 180 262 254 286 285 293 296 294 296 300 303 307 307 301 299 286 275 267 239 224 221 222 225 228 227 225 228 228 232 234 230 226 224 227 230 231 233 237 238 239 234 234 239
276 265 256 255 283 215 256 261 262 294 310 294 301 319 320 310 300 297 304 302 304 295 281 269 244 228 222 221 221 223 225 228 231 229 232 237 234 231 230 227 229 229 231 237 237 235 229 233 239
254 230 248 267 262 281 240 270 266 252 292 300 322 332 326 311 297 311 312 307 319 310 290 271 258 237 226 208 205 211 215 226 231 235 235 233 238 235 231 230 226 229 230 233 238 233 231 229 230
284 286 314 304 355 318 292 285 267 214 231 257 349 329 324 318 327 326 335 354 2 349 326 293 272 251 227 216 212 208 214 220 223 223 229 233 233 236 234 231 224 226 230 232 237 231 229 233 203
329 116 294 271 302 262 284 280 283 265 344 338 339 289 301 306 315 325 327 336 357 2 358 321 282 264 237 222 212 204 205 216 221 223 227 229 231 236 239 235 228 227 227 229 232 230 221 201 204
316 285 320 307 326 280 160 290 217 331 320 300 315 326 330 326 326 329 323 335 345 0 7 7 318 272 250 226 209 201 200 204 221 228 231 233 238 233 239 240 235 230 228 223 229 226 209 210 191
238 329 264 287 255 334 285 355 263 352 316 307 301 317 322 342 312 316 323 334 354 5 1 8 14 339 267 234 215 208 204 213 221 226 229 233 242 241 238 236 231 228 226 225 226 219 213 217 208
265 340 350 44 86 3 263 99 268 278 234 290 295 66 12 335 309 321 335 356 358 2 2 357 355 1 355 266 239 228 206 213 216 222 228 239 245 247 244 238 230 226 222 224 226 218 214 214 216
37 41 332 346 360 233 262 320 243 264 254 237 288 39 47 352 314 340 354 353 354 353 353 351 346 341 350 328 250 235 231 219 218 224 228 237 242 234 240 233 230 221 219 216 217 215 216 214 215
281 149 161 259 234 268 313 239 253 227 272 290 261 90 31 341 340 342 343 349 351 347 343 342 343 339 336 351 297 244 232 238 224 224 233 238 249 252 253 242 226 222 221 198 217 214 233 218 214
274 166 189 200 248 274 243 282 315 271 289 289 338 358 327 328 322 311 322 341 343 337 332 332 332 336 331 325 338 276 247 237 249 227 234 260 260 263 257 240 216 203 208 235 229 234 243 227 201
138 180 38 15 288 255 266 266 245 295 280 279 290 288 307 315 325 326 332 332 327 322 322 318 322 328 328 310 328 309 261 242 242 258 251 253 264 266 259 233 198 198 205 196 195 205 203 180 166
319 311 131 136 218 279 290 258 218 288 294 274 275 250 288 295 294 302 315 328 319 313 310 307 309 319 327 306 320 310 253 221 206 221 217 249 260 257 245 221 210 191 183 178 183 174 174 173 144
182 203 175 129 264 230 270 275 254 251 259 300 286 297 290 277 285 303 324 316 312 305 303 299 301 316 330 308 304 250 219 136 172 188 200 238 272 254 235 206 187 188 170 176 171 156 161 145 141